www.pogodaiklimat.ru

Погода и климат >> Архив погоды >> Австралия >> Tennant Creek Airport


ПОГОДА в Tennant Creek Airport

  • Прогноз погоды в Tennant Creek Airport
  • Монитор погоды в Tennant Creek Airport
  • Климат города

АРХИВ ПОГОДЫ в Tennant Creek Airport

Время (UTC), дата Ветер
(напр.,м/с)
 
Видим.   Явления Облачность Т
(С)
Тd
(С)
f
(%)
Тe
(С)
Тes
(С)
Комфортность P
(гПа)
Po
(гПа)
Тmin
(С)
Tmax
(С)
R
(мм)
R24
(мм)
S
(см)
02 13.11 СВ 7 н/о н/о +28.3 +20.3 62 +35 +35 очень
душно
1009.6 968.0
03 13.11 СВ 6 н/о н/о +28.6 +18.7 55 +34 +34 очень
душно
1008.6 967.0
05 13.11 С 3 н/о н/о +31.0 +17.0 43 +35 +35 очень
душно
1006.6 965.1
06 13.11 С 4 н/о н/о +32.0 +16.3 39 +35 +35 очень
душно
1006.0 964.5
08 13.11 Ю 2 н/о н/о +32.3 +15.7 37 +35 +35 очень
душно
1004.7 963.3
09 13.11 С 4 н/о н/о +31.6 +16.4 40 +35 +35 очень
душно
1005.0 963.6
11 13.11 В 4 н/о н/о +28.8 +16.7 48 +32 +32 душно 1006.7 965.2
12 13.11 В 3 н/о н/о +27.6 +17.2 53 +32 +32 очень
душно
1007.5 966.0
14 13.11 ЮВ 5 н/о н/о +25.5 +15.8 55 +29 +29 душно 1008.7 967.1
15 13.11 ЮВ 6 н/о н/о +24.2 +16.5 62 +28 +28 душно 1008.6 967.0
17 13.11 В 6 н/о н/о +23.4 +16.9 67 +29 +29 душно 1007.3 965.8
18 13.11 В 6 н/о н/о +22.9 +19.1 79 +29 +29 очень
душно
1007.3 965.8
20 13.11 В 4 н/о н/о +22.8 +20.1 85 +29 +29 очень
душно
1008.9 967.3
21 13.11 СВ 4 н/о н/о +23.7 +20.4 82 +29 +29 душно 1009.7 968.1
23 13.11 Ю 7 н/о н/о +18.8 +18.3 97 +20 +20 1011.8 970.1
00 14.11 Ю 5 н/о н/о +19.7 +18.9 95 +22 +22 комфорт 1013.1 971.3
02 14.11 В 8 н/о н/о +23.1 +16.6 67 +28 +28 душно 1011.0 969.3
03 14.11 В 8 н/о н/о +24.7 +17.4 64 +29 +29 душно 1009.5 967.9
05 14.11 С 5 н/о н/о +26.5 +17.3 57 +31 +31 душно 1008.4 966.8
06 14.11 С 6 н/о н/о +27.1 +16.7 53 +31 +31 душно 1007.5 966.0
08 14.11 СЗ 3 н/о н/о +27.9 +16.5 50 +31 +31 душно 1006.4 964.9
09 14.11 З 3 н/о н/о +26.7 +17.5 57 +31 +31 душно 1006.9 965.4
11 14.11 ЮЗ 2 н/о н/о +22.6 +20.1 86 +29 +29 очень
душно
1008.2 966.6
12 14.11 С 2 н/о н/о +21.8 +18.8 83 +27 +27 душно 1008.3 966.7
14 14.11 СЗ 2 н/о н/о +20.9 +18.7 87 +26 +26 душно 1009.2 967.6
15 14.11 С 3 н/о н/о +20.6 +18.7 89 +25 +25 комфорт 1008.3 966.7
17 14.11 ЮВ 2 н/о н/о +20.9 +18.3 85 +26 +26 душно 1008.4 966.8
18 14.11 В 2 н/о н/о +20.6 +18.4 87 +25 +25 комфорт 1009.0 967.4
20 14.11 СЗ 4 н/о н/о +19.6 +17.7 89 +22 +22 комфорт 1009.6 968.0
21 14.11 С 3 н/о н/о +21.5 +18.5 83 +26 +26 душно 1010.1 968.5
23 14.11 С 3 н/о н/о +26.9 +17.1 55 +31 +31 душно 1011.3 969.6
00 15.11 С 3 н/о н/о +28.5 +16.1 47 +32 +32 душно 1011.2 969.5
02 15.11 В 3 н/о н/о +30.9 +16.5 42 +34 +34 душно 1010.4 968.8
03 15.11 С 3 н/о н/о +31.9 +17.0 41 +35 +35 очень
душно
1009.7 968.1
05 15.11 В 4 н/о н/о +33.9 +14.9 32 +36 +36 душно 1008.0 966.5
06 15.11 СВ 3 н/о н/о +34.4 +14.3 30 +36 +36 душно 1007.3 965.8
08 15.11 ЮЗ 2 н/о н/о +34.2 +14.1 30 +35 +35 очень
жарко
1006.3 964.8
09 15.11 ЮВ 2 н/о н/о +33.2 +14.3 32 +35 +35 душно 1006.8 965.3
11 15.11 штиль 0 н/о н/о +28.6 +19.8 59 +35 +35 очень
душно
1008.0 966.5
12 15.11 штиль 0 н/о н/о +27.5 +20.1 64 +34 +34 очень
душно
1008.2 966.6
14 15.11 штиль 0 н/о н/о +27.2 +17.7 56 +31 +31 душно 1008.4 966.8
15 15.11 штиль 0 н/о н/о +25.8 +19.4 68 +31 +31 очень
душно
1007.9 966.4
17 15.11 СВ 4 н/о н/о +26.6 +17.4 57 +31 +31 душно 1008.2 966.6
18 15.11 СВ 3 н/о н/о +26.3 +17.4 58 +30 +30 душно 1008.4 966.8
20 15.11 ЮВ 4 н/о н/о +25.1 +16.5 59 +29 +29 душно 1009.4 967.8
21 15.11 В 8 н/о н/о +25.4 +16.3 57 +29 +29 душно 1009.7 968.1
23 15.11 В 10 н/о н/о +28.3 +16.6 49 +32 +32 душно 1011.1 969.4
00 16.11 В 8 н/о н/о +29.2 +16.7 47 +33 +33 очень
душно
1011.6 969.9
02 16.11 В 6 н/о н/о +31.6 +16.7 41 +35 +35 очень
душно
1010.1 968.5
03 16.11 В 5 н/о н/о +32.1 +16.4 39 +35 +35 очень
душно
1009.6 968.0
05 16.11 Ю 3 н/о н/о +33.7 +15.7 34 +36 +36 очень
душно
1006.9 965.4
06 16.11 В 4 н/о н/о +34.4 +14.8 31 +36 +36 душно 1006.4 964.9
08 16.11 В 3 н/о н/о +34.0 +14.0 30 +35 +35 очень
жарко
1006.1 964.6
09 16.11 ЮВ 3 н/о н/о +33.5 +14.0 31 +35 +35 душно 1006.4 964.9
11 16.11 В 3 н/о н/о +31.7 +15.6 38 +34 +34 душно 1007.5 966.0
12 16.11 В 3 н/о н/о +30.9 +16.1 41 +34 +34 душно 1008.4 966.8
14 16.11 В 6 н/о н/о +28.6 +13.7 40 +30 +30 жарко 1009.2 967.6
15 16.11 В 6 н/о н/о +27.8 +13.3 41 +30 +30 жарко 1009.1 967.5
17 16.11 В 7 н/о н/о +26.3 +13.8 46 +28 +28 жарко 1008.6 967.0
18 16.11 В 6 н/о н/о +26.0 +13.8 47 +28 +28 жарко 1008.5 966.9
20 16.11 В 5 н/о н/о +25.1 +14.3 51 +28 +28 жарко 1009.3 967.7
21 16.11 В 5 н/о н/о +25.0 +14.5 52 +28 +28 жарко 1010.1 968.5
23 16.11 В 6 н/о н/о +28.4 +13.5 40 +30 +30 жарко 1011.7 970.0
00 17.11 В 7 н/о н/о +30.4 +11.9 32 +31 +31 жарко 1011.4 969.7
02 17.11 СВ 5 н/о н/о +33.1 +9.2 23 +32 +32 жарко 1009.9 968.3
03 17.11 СВ 3 н/о н/о +34.7 +10.5 23 +34 +34 очень
жарко
1009.0 967.4
05 17.11 В 5 н/о н/о +35.6 +9.9 21 +34 +34 очень
жарко
1007.0 965.5
06 17.11 СВ 5 н/о н/о +35.9 +9.4 20 +35 +35 очень
жарко
1006.4 964.9
08 17.11 В 4 н/о н/о +36.0 +8.7 19 +34 +34 очень
жарко
1005.9 964.4
09 17.11 ЮВ 4 н/о н/о +35.0 +9.4 21 +34 +34 очень
жарко
1006.3 964.8
11 17.11 В 3 н/о н/о +31.7 +11.5 29 +32 +32 жарко 1007.5 966.0
12 17.11 В 3 н/о н/о +30.2 +12.1 33 +31 +31 жарко 1008.2 966.6
14 17.11 В 3 н/о н/о +28.8 +12.7 37 +30 +30 жарко 1008.9 967.3
15 17.11 В 3 н/о н/о +27.7 +12.9 40 +29 +29 жарко 1008.8 967.2
17 17.11 В 5 н/о н/о +26.5 +12.2 41 +28 +28 жарко 1007.9 966.4
18 17.11 В 6 н/о н/о +26.2 +11.5 40 +27 +27 жарко 1008.2 966.6
20 17.11 В 4 н/о н/о +24.2 +13.7 52 +26 +26 жарко 1009.2 967.6
21 17.11 В 3 н/о н/о +25.4 +16.0 56 +29 +29 душно 1009.6 968.0
23 17.11 В 5 н/о н/о +31.1 +12.9 33 +32 +32 жарко 1010.4 968.8
00 18.11 СВ 6 н/о н/о +32.4 +9.2 24 +31 +31 жарко 1010.2 968.6
02 18.11 С 5 н/о н/о +35.3 +9.7 21 +34 +34 очень
жарко
1009.2 967.6
03 18.11 СВ 3 н/о н/о +35.9 +8.7 19 +34 +34 очень
жарко
1008.3 966.7
05 18.11 Ю 4 н/о н/о +38.0 +6.9 15 +36 +36 очень
жарко
1006.3 964.8
06 18.11 В 4 н/о н/о +37.4 +6.4 15 +35 +35 очень
жарко
1005.6 964.2
08 18.11 ЮВ 5 н/о н/о +37.1 +5.2 14 +34 +34 очень
жарко
1005.0 963.6
09 18.11 ЮВ 3 н/о н/о +36.2 +6.4 16 +34 +34 очень
жарко
1005.2 963.8
11 18.11 В 3 н/о н/о +31.9 +8.8 24 +31 +31 жарко 1006.6 965.1
12 18.11 В 4 н/о н/о +30.7 +9.0 26 +30 +30 жарко 1007.1 965.6
14 18.11 ЮВ 3 н/о н/о +28.0 +10.2 33 +28 +28 жарко 1007.3 965.8
15 18.11 В 3 н/о н/о +28.2 +9.5 31 +28 +28 жарко 1007.1 965.6
17 18.11 С 1 н/о н/о +25.1 +12.0 44 +27 +27 жарко 1006.6 965.1
18 18.11 СВ 2 н/о н/о +24.7 +11.6 44 +26 +26 жарко 1006.5 965.0
20 18.11 С 4 н/о н/о +25.2 +9.9 38 +26 +26 жарко 1007.1 965.6
21 18.11 С 4 н/о н/о +26.8 +15.2 49 +30 +30 душно 1007.7 966.2
23 18.11 СЗ 8 н/о н/о +32.3 +17.7 42 +36 +36 очень
душно
1008.3 966.7
00 19.11 СЗ 6 н/о н/о +33.7 +18.6 41 +38 +38 очень
душно
1008.5 966.9
02 19.11 З 4 н/о н/о +35.9 +15.6 30 +38 +38 очень
душно
1007.8 966.3
03 19.11 С 3 н/о н/о +36.6 +12.1 23 +36 +36 очень
жарко
1007.0 965.5
05 19.11 СЗ 2 н/о н/о +38.0 +11.1 20 +37 +37 очень
жарко
1004.9 963.5
06 19.11 Ю 3 н/о н/о +38.7 +11.7 20 +38 +38 очень
жарко
1004.3 962.9
08 19.11 ЮЗ 3 н/о н/о +38.2 +12.0 21 +38 +38 очень
жарко
1003.9 962.5
09 19.11 Ю 3 н/о н/о +36.3 +12.5 24 +36 +36 очень
жарко
1004.3 962.9
11 19.11 штиль 0 н/о н/о +32.1 +16.4 39 +35 +35 очень
душно
1005.1 963.7
12 19.11 В 1 н/о н/о +31.9 +15.4 37 +34 +34 душно 1005.6 964.2
14 19.11 СВ 2 н/о н/о +31.5 +14.6 36 +33 +33 жарко 1006.2 964.7
15 19.11 З 3 н/о н/о +32.4 +14.1 33 +34 +34 очень
жарко
1006.7 965.2
17 19.11 С 4 н/о н/о +30.2 +16.6 44 +34 +34 очень
душно
1005.8 964.3
18 19.11 СЗ 3 н/о н/о +29.0 +17.8 51 +33 +33 очень
душно
1005.5 964.1
20 19.11 ЮЗ 3 н/о н/о +28.0 +18.4 56 +33 +33 очень
душно
1006.2 964.7
21 19.11 С 1 н/о н/о +28.3 +18.1 54 +33 +33 очень
душно
1007.4 965.9
23 19.11 З 4 н/о н/о +30.9 +17.9 46 +35 +35 очень
душно
1007.6 966.1
00 20.11 З 4 н/о н/о +31.8 +18.0 44 +36 +36 очень
душно
1007.4 965.9

 

Местоположение метеостанции Tennant Creek Airport (Северная территория, Австралия): широта -19.63 долгота 134.18 высота над уровнем моря 377 м.

В архиве по умолчанию представлена погода в Tennant Creek Airport за последнюю неделю. Архивные данные за месяц целиком и за предыдущие месяцы, начиная с января 2011 года, Вы можете получить, выбрав интересующий диапазон дат из раскрывающегося списка и нажав кнопку "Ввод!".

Внимание! Время в таблицах - всемирное. Для получения местного времени необходимо прибавить поправку, которая в Tennant Creek Airport равна 9.5 ч.

Смотрите также архив погоды в соседних городах и на ближайших метеорологических станциях:

Погода в Territory Grape Farm (Северная территория, Австралия) (319 км)
Погода в Daly Waters Aws (Северная территория, Австралия) (386 км)
Погода в Lajamanu (Северная территория, Австралия) (400 км)
Погода в Mcarthur River Mine (Северная территория, Австралия) (408 км)
Погода в Camooweal Township (Квинсленд, Австралия) (413 км)
Погода в Jervois (Северная территория, Австралия) (422 км)
Погода в Rabbit Flat (Северная территория, Австралия) (439 км)
Погода в Borroloola (Северная территория, Австралия) (454 км)
Погода в Alice Springs Airport (Северная территория, Австралия) (465 км)
Погода в Century Mine (Квинсленд, Австралия) (485 км)

Пояснения к столбцам:

Ветер - указаны скорость ветра в м/с - средняя за 10 мин, порывы в срок и между сроками (в фигурных скобках) и направление, откуда дует ветер: С - северный, СВ - северо-восточный, В - восточный, ЮВ - юго-восточный, Ю - южный, ЮЗ - юго-западный, З - западный, СЗ - северо-западный.
Видимость - горизонтальная дальность видимости в метрах или километрах. При видимости от 1 до 10 км при отсутствии осадков обычно наблюдается дымка, при ухудшении видимости до 1 км и менее - туман. В сухую погоду видимость может ухудшаться дымом, пылью или мглою.
Явления - указаны атмосферные явления, наблюдавшиеся в срок или в последний час перед сроком; фигурными скобками обозначены явления, наблюдавшиеся между сроками (за 1-3 часа до срока); квадратными скобками обозначены град или гололедные отложения с указанием их диаметра в мм.
Облачность - указаны через наклонную черту общая и нижняя облачность в баллах и высота нижней границы облаков в метрах; квадратными скобками обозначены формы облаков: Ci - перистые, Cs - перисто-слоистые, Cc - перисто-кучевые, Ac - высококучевые, As - высокослоистые, Sc - слоисто-кучевые, Ns - слоисто-дождевые, Cu - кучевые, Cb - кучево-дождевые. Подробнее классификацию облаков см. в Атласе облаков (PDF).
T - Температура воздуха - температура, измеренная на высоте 2 м над землей.
Td - Температура точки росы - температура, при понижении до которой содержащийся в воздухе водяной пар достигнет насыщения.
f - Относительная влажность воздуха - влажноcть воздуха, измеренная на высоте 2 м над землей.
Te - Эффективная температура - температура, которую ощущает одетый по сезону человек в тени. Характеристика душности погоды. При расчете учитывается влияние влажности воздуха и скорости ветра на теплоощущения человека.
Tes - Эффективная температура на солнце - температура, которую ощущает человек, с поправкой на солнечный нагрев. Характеристика знойности погоды. Зависит от высоты солнца над горизонтом, облачности и скорости ветра. Ночью, в пасмурную погоду, а также при ветре 12 м/с и более поправка равна нулю.
P - Атмосферное давление - приведенное к уровню моря атмосферное давление.
Po - Атмосферное давление - измеренное на уровне метеостанции атмосферное давление.
Tmin - Минимальная температура - минимум температуры воздуха на высоте 2 м над землей.
Tmax - Максимальная температура - максимум температуры воздуха на высоте 2 м над землей.
R - Количество осадков - Количество выпавших осадков за период времени, мм. При наведении курсора мыши на число - период времени, за который выпало указанное количество осадков.
R24 - Количество осадков - Количество выпавших осадков за 24 часа, мм.
S - Снежный покров - Высота снежного покрова, см. При наведении курсора мыши на число - состояние снежного покрова и степень покрытия местности в баллах.